GLO1846 SBGL-SBVT

Flight info

Callsign GLO1846
Flight time 0h 39m
Altitude 29000
Route TISVA UL206 TODET
Aircraft B738/M-SDE2E3FGHIRWXY/LB1

Departure

Time 2026-04-17 22:18
Airport Rio Galeão – Tom Jobim International Airport (SBGL)

Arrival

Time 2026-04-17 22:57
Airport Eurico de Aguiar Salles International Airport (SBVT)
Time Latitude Longitude Altitude Speed Heading
2026-04-17 22:02 -22.81247 -43.25195 25 ft 0 kts 27°
2026-04-17 22:08 -22.81247 -43.25196 -2 ft 1 kts 27°
2026-04-17 22:08 -22.81269 -43.25208 30 ft 4 kts 27°
2026-04-17 22:09 -22.81291 -43.25217 29 ft 4 kts 353°
2026-04-17 22:09 -22.81313 -43.25206 27 ft 4 kts 311°
2026-04-17 22:09 -22.81322 -43.25195 31 ft 1 kts 305°
2026-04-17 22:09 -22.81323 -43.25194 31 ft 0 kts 305°
2026-04-17 22:11 -22.81317 -43.25202 31 ft 7 kts 305°
2026-04-17 22:11 -22.81272 -43.25270 27 ft 14 kts 309°
2026-04-17 22:11 -22.81191 -43.25347 27 ft 16 kts 331°
2026-04-17 22:12 -22.81089 -43.25381 26 ft 16 kts 352°
2026-04-17 22:12 -22.80982 -43.25385 29 ft 15 kts 342°
2026-04-17 22:12 -22.80926 -43.25475 28 ft 14 kts 294°
2026-04-17 22:12 -22.80884 -43.25571 29 ft 14 kts 295°
2026-04-17 22:13 -22.80837 -43.25656 27 ft 13 kts 306°
2026-04-17 22:13 -22.80761 -43.25677 25 ft 13 kts 26°
2026-04-17 22:13 -22.80693 -43.25628 28 ft 11 kts 34°
2026-04-17 22:13 -22.80629 -43.25581 28 ft 11 kts 40°
2026-04-17 22:14 -22.80567 -43.25534 29 ft 11 kts 23°
2026-04-17 22:14 -22.80498 -43.25554 29 ft 11 kts 326°
2026-04-17 22:14 -22.80438 -43.25597 30 ft 10 kts 326°
2026-04-17 22:14 -22.80373 -43.25611 27 ft 10 kts 22°
2026-04-17 22:15 -22.80316 -43.25569 27 ft 10 kts 37°
2026-04-17 22:15 -22.80264 -43.25525 28 ft 9 kts 38°
2026-04-17 22:15 -22.80209 -43.25478 27 ft 11 kts 39°
2026-04-17 22:15 -22.80160 -43.25421 26 ft 0 kts 70°
2026-04-17 22:16 -22.80160 -43.25420 25 ft 1 kts 70°
2026-04-17 22:16 -22.80149 -43.25384 25 ft 0 kts 73°
2026-04-17 22:16 -22.80148 -43.25380 25 ft 0 kts 73°
2026-04-17 22:16 -22.80148 -43.25377 25 ft 0 kts 73°
2026-04-17 22:17 -22.80142 -43.25354 28 ft 18 kts 75°
2026-04-17 22:17 -22.80041 -43.24964 27 ft 89 kts 74°
2026-04-17 22:17 -22.79819 -43.24104 27 ft 146 kts 74°
2026-04-17 22:17 -22.79522 -43.22960 425 ft 159 kts 76°
2026-04-17 22:18 -22.79236 -43.21786 1033 ft 163 kts 78°
2026-04-17 22:18 -22.78969 -43.20576 1657 ft 169 kts 77°
2026-04-17 22:18 -22.78690 -43.19287 2125 ft 192 kts 77°
2026-04-17 22:18 -22.78364 -43.17777 2372 ft 218 kts 76°
2026-04-17 22:19 -22.78007 -43.16109 2615 ft 236 kts 76°
2026-04-17 22:19 -22.77627 -43.14329 3027 ft 245 kts 76°
2026-04-17 22:19 -22.77241 -43.12513 3547 ft 249 kts 76°
2026-04-17 22:19 -22.76854 -43.10675 4111 ft 252 kts 77°
2026-04-17 22:20 -22.76458 -43.08806 4630 ft 256 kts 77°
2026-04-17 22:20 -22.76059 -43.06914 5150 ft 259 kts 77°
2026-04-17 22:20 -22.75654 -43.04995 5657 ft 264 kts 78°
2026-04-17 22:20 -22.75238 -43.03028 6037 ft 276 kts 78°
2026-04-17 22:21 -22.74792 -43.00936 6386 ft 292 kts 78°
2026-04-17 22:21 -22.74330 -42.98782 7160 ft 292 kts 78°
2026-04-17 22:21 -22.73870 -42.96634 7979 ft 294 kts 78°
2026-04-17 22:21 -22.73406 -42.94465 8725 ft 297 kts 78°
2026-04-17 22:22 -22.72936 -42.92268 9457 ft 302 kts 78°
2026-04-17 22:22 -22.72460 -42.90039 10161 ft 306 kts 78°
2026-04-17 22:22 -22.71964 -42.87718 10397 ft 328 kts 78°
2026-04-17 22:22 -22.71440 -42.85268 10645 ft 346 kts 78°
2026-04-17 22:23 -22.70889 -42.82701 11205 ft 353 kts 78°
2026-04-17 22:23 -22.70329 -42.80099 11878 ft 356 kts 78°
2026-04-17 22:23 -22.69765 -42.77481 12581 ft 359 kts 78°
2026-04-17 22:23 -22.69195 -42.74836 13277 ft 362 kts 78°
2026-04-17 22:24 -22.68619 -42.72164 13943 ft 366 kts 78°
2026-04-17 22:24 -22.68036 -42.69466 14552 ft 370 kts 78°
2026-04-17 22:24 -22.67446 -42.66730 15145 ft 376 kts 77°
2026-04-17 22:24 -22.66847 -42.63955 15760 ft 380 kts 77°
2026-04-17 22:25 -22.66239 -42.61149 16365 ft 385 kts 77°
2026-04-17 22:25 -22.65625 -42.58310 16948 ft 390 kts 77°
2026-04-17 22:25 -22.65002 -42.55434 17507 ft 395 kts 77°
2026-04-17 22:25 -22.64370 -42.52516 18059 ft 400 kts 77°
2026-04-17 22:26 -22.63729 -42.49566 18559 ft 405 kts 76°
2026-04-17 22:26 -22.63083 -42.46589 19104 ft 407 kts 76°
2026-04-17 22:26 -22.62434 -42.43597 19658 ft 409 kts 76°
2026-04-17 22:26 -22.61780 -42.40591 20185 ft 412 kts 76°
2026-04-17 22:27 -22.61122 -42.37569 20725 ft 414 kts 76°
2026-04-17 22:27 -22.60459 -42.34529 21239 ft 417 kts 76°
2026-04-17 22:27 -22.59790 -42.31465 21749 ft 419 kts 76°
2026-04-17 22:27 -22.59117 -42.28383 22271 ft 422 kts 76°
2026-04-17 22:28 -22.58067 -42.25419 22706 ft 425 kts 57°
2026-04-17 22:28 -22.56204 -42.22960 23184 ft 424 kts 40°
2026-04-17 22:28 -22.53950 -42.20898 23670 ft 425 kts 38°
2026-04-17 22:28 -22.51648 -42.18874 24017 ft 429 kts 37°
2026-04-17 22:29 -22.49315 -42.16836 24348 ft 433 kts 37°
2026-04-17 22:29 -22.46970 -42.14775 24711 ft 436 kts 37°
2026-04-17 22:29 -22.44615 -42.12686 25094 ft 439 kts 37°
2026-04-17 22:29 -22.42250 -42.10576 25457 ft 443 kts 37°
2026-04-17 22:30 -22.39879 -42.08450 26018 ft 439 kts 37°
2026-04-17 22:30 -22.37595 -42.06395 26929 ft 427 kts 37°
2026-04-17 22:30 -22.35343 -42.04367 27844 ft 415 kts 36°
2026-04-17 22:30 -22.33156 -42.02398 28615 ft 409 kts 36°
2026-04-17 22:31 -22.30956 -42.00426 28893 ft 412 kts 36°
2026-04-17 22:31 -22.28722 -41.98428 28890 ft 423 kts 36°
2026-04-17 22:31 -22.26423 -41.96375 28908 ft 434 kts 36°
2026-04-17 22:31 -22.24068 -41.94268 28899 ft 445 kts 36°
2026-04-17 22:32 -22.21661 -41.92112 28904 ft 454 kts 36°
2026-04-17 22:32 -22.16702 -41.87670 28911 ft 473 kts 36°
2026-04-17 22:33 -22.11546 -41.83058 28887 ft 488 kts 36°
2026-04-17 22:33 -22.06261 -41.78323 28911 ft 500 kts 37°
2026-04-17 22:34 -22.00868 -41.73487 28910 ft 509 kts 37°
2026-04-17 22:34 -21.95383 -41.68577 28920 ft 516 kts 37°
2026-04-17 22:35 -21.89847 -41.63643 28907 ft 516 kts 37°
2026-04-17 22:35 -21.84352 -41.58756 28911 ft 516 kts 37°
2026-04-17 22:36 -21.78818 -41.53838 28586 ft 517 kts 37°
2026-04-17 22:36 -21.76051 -41.51379 28165 ft 514 kts 37°
2026-04-17 22:36 -21.73295 -41.48930 27682 ft 514 kts 37°
2026-04-17 22:36 -21.70539 -41.46483 27204 ft 513 kts 37°
2026-04-17 22:37 -21.67784 -41.44038 26712 ft 513 kts 37°
2026-04-17 22:37 -21.65029 -41.41594 26235 ft 513 kts 37°
2026-04-17 22:37 -21.62280 -41.39163 25900 ft 510 kts 37°
2026-04-17 22:37 -21.59542 -41.36747 25448 ft 510 kts 37°
2026-04-17 22:38 -21.56802 -41.34334 24981 ft 509 kts 38°
2026-04-17 22:38 -21.54068 -41.31926 24514 ft 508 kts 38°
2026-04-17 22:38 -21.51354 -41.29535 24008 ft 499 kts 38°
2026-04-17 22:38 -21.48696 -41.27193 23551 ft 490 kts 38°
2026-04-17 22:39 -21.46082 -41.24879 23173 ft 485 kts 38°
2026-04-17 22:39 -21.43476 -41.22569 22675 ft 486 kts 38°
2026-04-17 22:39 -21.38287 -41.17967 21710 ft 482 kts 38°
2026-04-17 22:40 -21.35741 -41.15712 21233 ft 479 kts 38°
2026-04-17 22:40 -21.33175 -41.13441 20758 ft 476 kts 38°
2026-04-17 22:40 -21.30633 -41.11194 20287 ft 472 kts 38°
2026-04-17 22:40 -21.28106 -41.08968 19844 ft 467 kts 38°
2026-04-17 22:41 -21.25604 -41.06769 19393 ft 463 kts 38°
2026-04-17 22:41 -21.23120 -41.04587 18925 ft 460 kts 38°
2026-04-17 22:41 -21.20652 -41.02420 18448 ft 457 kts 38°
2026-04-17 22:41 -21.18199 -41.00266 17944 ft 454 kts 38°
2026-04-17 22:42 -21.15768 -40.98131 17430 ft 450 kts 38°
2026-04-17 22:42 -21.13361 -40.96017 16971 ft 446 kts 38°
2026-04-17 22:42 -21.10977 -40.93923 16510 ft 441 kts 38°
2026-04-17 22:42 -21.08613 -40.91849 16055 ft 438 kts 38°
2026-04-17 22:43 -21.06264 -40.89790 15602 ft 435 kts 38°
2026-04-17 22:43 -21.03929 -40.87744 15188 ft 432 kts 38°
2026-04-17 22:43 -21.01613 -40.85716 14746 ft 430 kts 38°
2026-04-17 22:43 -20.99309 -40.83698 14292 ft 425 kts 38°
2026-04-17 22:44 -20.97043 -40.81714 13841 ft 417 kts 38°
2026-04-17 22:44 -20.94818 -40.79767 13374 ft 409 kts 38°
2026-04-17 22:44 -20.92640 -40.77862 12917 ft 400 kts 38°
2026-04-17 22:44 -20.90507 -40.75996 12494 ft 392 kts 38°
2026-04-17 22:45 -20.88415 -40.74167 12085 ft 385 kts 38°
2026-04-17 22:45 -20.86389 -40.72395 11685 ft 378 kts 38°
2026-04-17 22:45 -20.84369 -40.70630 11294 ft 372 kts 38°
2026-04-17 22:45 -20.82380 -40.68894 10904 ft 366 kts 38°
2026-04-17 22:46 -20.80465 -40.67133 10522 ft 362 kts 46°
2026-04-17 22:46 -20.78916 -40.65043 10230 ft 355 kts 54°
2026-04-17 22:46 -20.77523 -40.62919 10087 ft 343 kts 54°
2026-04-17 22:46 -20.76187 -40.60861 9939 ft 332 kts 54°
2026-04-17 22:47 -20.75303 -40.59507 9881 ft 324 kts 54°
2026-04-17 22:47 -20.74058 -40.57616 9870 ft 305 kts 54°
2026-04-17 22:47 -20.72857 -40.55808 9612 ft 294 kts 53°
2026-04-17 22:47 -20.71683 -40.54051 9248 ft 288 kts 53°
2026-04-17 22:48 -20.70523 -40.52326 8840 ft 284 kts 53°
2026-04-17 22:48 -20.69372 -40.50621 8451 ft 282 kts 53°
2026-04-17 22:48 -20.68227 -40.48928 8063 ft 281 kts 53°
2026-04-17 22:48 -20.67090 -40.47241 7673 ft 279 kts 53°
2026-04-17 22:49 -20.65953 -40.45557 7343 ft 279 kts 53°
2026-04-17 22:49 -20.64820 -40.43882 7088 ft 278 kts 53°
2026-04-17 22:49 -20.63691 -40.42212 6804 ft 277 kts 53°
2026-04-17 22:49 -20.62562 -40.40546 6533 ft 276 kts 53°
2026-04-17 22:50 -20.61434 -40.38883 6242 ft 276 kts 53°
2026-04-17 22:50 -20.60312 -40.37226 5938 ft 275 kts 53°
2026-04-17 22:50 -20.59193 -40.35574 5655 ft 274 kts 53°
2026-04-17 22:50 -20.58085 -40.33936 5401 ft 270 kts 53°
2026-04-17 22:51 -20.56989 -40.32316 5162 ft 268 kts 53°
2026-04-17 22:51 -20.55900 -40.30710 4905 ft 266 kts 53°
2026-04-17 22:51 -20.54815 -40.29112 4643 ft 265 kts 53°
2026-04-17 22:51 -20.53734 -40.27520 4374 ft 264 kts 53°
2026-04-17 22:52 -20.52653 -40.25941 4122 ft 262 kts 50°
2026-04-17 22:52 -20.51284 -40.24778 4005 ft 253 kts 19°
2026-04-17 22:52 -20.49594 -40.24550 4020 ft 238 kts 359°
2026-04-17 22:52 -20.48000 -40.24664 3989 ft 222 kts 352°
2026-04-17 22:53 -20.46488 -40.24897 3989 ft 218 kts 351°
2026-04-17 22:53 -20.45006 -40.25127 3897 ft 215 kts 352°
2026-04-17 22:53 -20.43531 -40.25345 3619 ft 211 kts 352°
2026-04-17 22:53 -20.42100 -40.25555 3327 ft 204 kts 352°
2026-04-17 22:54 -20.40714 -40.25759 3030 ft 198 kts 352°
2026-04-17 22:54 -20.39370 -40.25960 2752 ft 193 kts 352°
2026-04-17 22:54 -20.38058 -40.26154 2434 ft 186 kts 352°
2026-04-17 22:54 -20.36816 -40.26337 2216 ft 173 kts 352°
2026-04-17 22:55 -20.35660 -40.26507 1956 ft 166 kts 352°
2026-04-17 22:55 -20.34571 -40.26669 1758 ft 149 kts 352°
2026-04-17 22:55 -20.33555 -40.26822 1471 ft 147 kts 352°
2026-04-17 22:55 -20.32554 -40.26986 1162 ft 143 kts 351°
2026-04-17 22:56 -20.31565 -40.27140 960 ft 145 kts 353°
2026-04-17 22:56 -20.30570 -40.27277 781 ft 144 kts 354°
2026-04-17 22:56 -20.29582 -40.27427 593 ft 143 kts 353°
2026-04-17 22:56 -20.28599 -40.27563 408 ft 140 kts 353°
2026-04-17 22:57 -20.27646 -40.27701 248 ft 137 kts 353°
2026-04-17 22:57 -20.26704 -40.27833 72 ft 136 kts 354°
2026-04-17 22:57 -20.25815 -40.27963 22 ft 108 kts 352°
2026-04-17 22:57 -20.25308 -40.28037 20 ft 27 kts 352°
2026-04-17 22:58 -20.25238 -40.28099 18 ft 11 kts 246°
2026-04-17 22:58 -20.25294 -40.28149 17 ft 10 kts 214°
2026-04-17 22:58 -20.25352 -40.28189 17 ft 10 kts 212°
2026-04-17 22:58 -20.25417 -40.28198 17 ft 10 kts 172°
2026-04-17 22:59 -20.25482 -40.28188 19 ft 9 kts 171°
2026-04-17 22:59 -20.25549 -40.28178 19 ft 11 kts 172°
2026-04-17 22:59 -20.25637 -40.28164 17 ft 15 kts 172°
2026-04-17 22:59 -20.25738 -40.28150 19 ft 14 kts 172°
2026-04-17 23:00 -20.25834 -40.28136 17 ft 14 kts 173°
2026-04-17 23:00 -20.25938 -40.28121 17 ft 15 kts 172°
2026-04-17 23:00 -20.26041 -40.28105 19 ft 15 kts 172°
2026-04-17 23:00 -20.26140 -40.28091 17 ft 14 kts 172°
2026-04-17 23:01 -20.26233 -40.28077 17 ft 13 kts 172°
2026-04-17 23:01 -20.26319 -40.28085 17 ft 13 kts 219°
2026-04-17 23:01 -20.26390 -40.28117 17 ft 11 kts 171°
2026-04-17 23:01 -20.26417 -40.28134 18 ft 5 kts 263°
2026-04-17 23:02 -20.26421 -40.28168 17 ft 5 kts 262°
2026-04-17 23:02 -20.26423 -40.28183 17 ft 0 kts 262°